This is the latest recevied weather packets stored in our database for station/object IK4NOW-13. If no packets are shown the sender has not sent any weather packets the latest 10 day(s).
| Time | Temp. | Humidity | Pressure | Rain* | Wind** | Luminosity | Snow |
|---|---|---|---|---|---|---|---|
| 1777574908 | 13.89° C | 54% | 1025.3 hPa | - | - | - | - |
| 1777572249 | 14.44° C | 52% | 1024.9 hPa | - | - | - | - |
| 1777572203 | 14.44° C | 52% | 1024.9 hPa | - | - | - | - |
| 1777569497 | 15.56° C | 53% | 1024.7 hPa | - | - | - | - |
| 1777566792 | 15.56° C | 52% | 1024.6 hPa | - | - | - | - |
| 1777566507 | 15.56° C | 53% | 1024.6 hPa | - | - | - | - |
| 1777565124 | 16.11° C | 53% | 1024.6 hPa | - | - | - | - |
| 1777562419 | 16.67° C | 53% | 1024.5 hPa | - | - | - | - |
| 1777559714 | 16.67° C | 53% | 1024.5 hPa | - | - | - | - |
| 1777557009 | 16.67° C | 54% | 1024.7 hPa | - | - | - | - |
| 1777554303 | 17.22° C | 54% | 1024.9 hPa | - | - | - | - |
| 1777551598 | 17.22° C | 55% | 1025.1 hPa | - | - | - | - |
| 1777548893 | 17.22° C | 55% | 1025.4 hPa | - | - | - | - |
| 1777546188 | 17.22° C | 56% | 1025.4 hPa | - | - | - | - |
| 1777543482 | 16.67° C | 57% | 1025.6 hPa | - | - | - | - |
| 1777541188 | 16.67° C | 57% | 1025.6 hPa | - | - | - | - |
| 1777538483 | 16.67° C | 59% | 1025.4 hPa | - | - | - | - |
| 1777535778 | 16.11° C | 61% | 1024.8 hPa | - | - | - | - |
| 1777533073 | 17.22° C | 63% | 1024.5 hPa | - | - | - | - |
| 1777530368 | 18.33° C | 67% | 1024 hPa | - | - | - | - |
| 1777527664 | 15° C | 66% | 1023.7 hPa | - | - | - | - |
| 1777524960 | 13.89° C | 65% | 1023.1 hPa | - | - | - | - |
| 1777522255 | 12.78° C | 66% | 1022.7 hPa | - | - | - | - |
| 1777519551 | 12.78° C | 66% | 1022.3 hPa | - | - | - | - |
| 1777516846 | 12.78° C | 66% | 1022.1 hPa | - | - | - | - |
* Rain since midnight (hover to see other rain measurements)
** Current wind speed in m/s (hover to see current wind gust speed)